DW6757 Weather Reports


time (UTC)temp
C
wind
direction
speed
KPH
gust
KPH
rain 1hr
cm
rain 24hr
cm
rain mn
cm
humidity
%
barometer
mb
20260510061004 23 144 0.0 1.6 0.00 0.36 0.00 83 1010.8
20260510060504 23 144 0.0 1.6 0.00 0.36 0.00 83 1010.9
20260510060004 23 144 0.0 1.6 0.00 0.36 0.00 83 1010.9
20260510055504 23 0 0.0 0.0 0.00 0.36 0.00 83 1010.8
20260510055004 23 144 0.0 1.6 0.00 0.36 0.00 82 1010.8
20260510054503 23 144 0.0 1.6 0.00 0.36 0.00 82 1010.8
20260510054025 23 144 0.0 1.6 0.00 0.36 0.00 82 1010.8
20260510053503 23 144 0.0 1.6 0.00 0.36 0.00 82 1010.7
20260510053004 24 156 0.0 3.2 0.00 0.36 0.00 82 1010.8
20260510052503 24 178 0.0 4.8 0.00 0.36 0.00 81 1010.7
20260510052003 24 180 1.6 6.4 0.00 0.36 0.00 81 1010.7
20260510051503 24 178 1.6 8.0 0.00 0.36 0.00 81 1010.6
20260510051004 24 171 3.2 8.0 0.00 0.36 0.00 81 1010.6
20260510050504 24 161 3.2 8.0 0.00 0.36 0.00 81 1010.6
20260510050004 25 163 3.2 8.0 0.00 0.36 0.00 80 1010.6
20260510045504 25 169 4.8 9.7 0.00 0.36 0.36 80 1010.5
20260510045003 25 172 4.8 12.9 0.00 0.36 0.36 80 1010.4
20260510044505 25 169 4.8 12.9 0.00 0.36 0.36 79 1010.3
20260510044004 25 173 4.8 11.3 0.00 0.36 0.36 79 1010.4
20260510043503 25 183 6.4 12.9 0.00 0.36 0.36 79 1010.3
20260510043004 25 186 4.8 12.9 0.00 0.36 0.36 79 1010.3
20260510042503 25 184 4.8 9.7 0.00 0.36 0.36 78 1010.2
20260510042003 25 177 3.2 8.0 0.00 0.36 0.36 78 1010.2
20260510041503 25 165 3.2 8.0 0.00 0.36 0.36 77 1010.3
20260510041004 25 156 4.8 8.0 0.00 0.36 0.36 77 1010.3
20260510040504 25 153 4.8 8.0 0.00 0.36 0.36 76 1010.2
20260510040025 25 157 4.8 9.7 0.00 0.36 0.36 76 1010.1
20260510035503 25 161 4.8 9.7 0.00 0.36 0.36 75 1010.1
20260510035004 25 157 4.8 9.7 0.00 0.36 0.36 74 1010.1
20260510034503 25 149 4.8 8.0 0.00 0.36 0.36 74 1010.1
20260510034003 25 142 3.2 8.0 0.00 0.36 0.36 74 1010.1
20260510033503 25 115 1.6 8.0 0.00 0.36 0.36 73 1010.0
20260510033004 25 81 1.6 3.2 0.00 0.36 0.36 72 1009.9
20260510032503 25 81 1.6 3.2 0.00 0.36 0.36 72 1009.8
20260510032003 26 81 0.0 1.6 0.00 0.36 0.36 72 1009.8
20260510031504 26 79 1.6 4.8 0.00 0.36 0.36 72 1009.7
20260510031025 26 67 1.6 4.8 0.00 0.36 0.36 71 1009.5
20260510030524 26 54 1.6 3.2 0.00 0.36 0.36 71 1009.6
20260510030004 26 23 1.6 6.4 0.00 0.36 0.36 71 1009.5
20260510025504 26 26 1.6 6.4 0.00 0.36 0.36 71 1009.4
20260510025004 26 32 0.0 3.2 0.00 0.36 0.36 70 1009.4
20260510024503 26 32 0.0 1.6 0.00 0.36 0.36 70 1009.2
20260510024004 26 0 0.0 0.0 0.00 0.36 0.36 69 1009.1
20260510023524 26 32 0.0 1.6 0.00 0.36 0.36 69 1009.2
20260510023003 26 32 0.0 1.6 0.00 0.36 0.36 69 1009.1
20260510022504 26 32 0.0 1.6 0.00 0.36 0.36 69 1009.0
20260510022003 26 32 0.0 1.6 0.00 0.36 0.36 69 1009.0
20260510021503 26 0 0.0 0.0 0.00 0.36 0.36 69 1008.9
20260510021003 26 0 0.0 0.0 0.00 0.36 0.36 68 1009.0
20260510020503 26 32 0.0 1.6 0.00 0.36 0.36 67 1009.0
20260510020004 26 32 0.0 1.6 0.00 0.36 0.36 67 1009.0
20260510015504 26 32 0.0 1.6 0.00 0.36 0.36 67 1009.0
20260510015004 27 0 0.0 0.0 0.00 0.36 0.36 67 1008.9
20260510014503 27 32 0.0 1.6 0.00 0.36 0.36 67 1008.8
20260510014024 27 36 1.6 4.8 0.00 0.36 0.36 67 1008.8
20260510013503 27 43 1.6 4.8 0.00 0.36 0.36 66 1008.7
20260510013004 27 66 1.6 3.2 0.00 0.36 0.36 66 1008.7
20260510012504 27 99 1.6 3.2 0.00 0.36 0.36 66 1008.6
20260510012004 27 123 1.6 3.2 0.00 0.36 0.36 64 1008.5
20260510011503 27 139 0.0 1.6 0.00 0.36 0.36 64 1008.5
20260510011025 27 139 0.0 1.6 0.00 0.36 0.36 64 1008.5
20260510010503 28 136 0.0 1.6 0.00 0.36 0.36 63 1008.5
20260510010005 28 136 0.0 1.6 0.00 0.36 0.36 63 1008.4
20260510005526 28 136 0.0 3.2 0.00 0.36 0.36 62 1008.4
20260510005005 28 136 1.6 4.8 0.00 0.36 0.36 62 1008.3
20260510004526 28 142 1.6 4.8 0.00 0.36 0.36 61 1008.3
20260510004004 29 144 3.2 6.4 0.00 0.36 0.36 60 1008.2
20260510003504 30 141 3.2 6.4 0.00 0.36 0.36 59 1008.0
20260510003005 30 143 4.8 9.7 0.00 0.36 0.36 58 1008.0
20260510002504 30 147 4.8 11.3 0.00 0.36 0.36 57 1008.0
20260510002005 30 149 4.8 11.3 0.00 0.36 0.36 58 1007.9
20260510001505 30 142 4.8 9.7 0.00 0.36 0.36 58 1007.9
20260510001005 30 138 4.8 8.0 0.00 0.36 0.36 58 1007.9
20260510000504 30 138 4.8 8.0 0.00 0.36 0.36 58 1007.9
20260510000025 30 108 3.2 8.0 0.00 0.36 0.36 57 1007.8
20260509235504 30 77 3.2 8.0 0.00 0.36 0.36 60 1007.6
20260509235025 30 41 4.8 8.0 0.00 0.36 0.36 61 1007.6
20260509234504 30 29 4.8 8.0 0.00 0.36 0.36 59 1007.5
20260509234004 31 52 3.2 8.0 0.00 0.36 0.36 58 1007.7
20260509233505 31 141 1.6 4.8 0.00 0.36 0.36 56 1007.7
20260509233005 31 180 1.6 3.2 0.00 0.36 0.36 55 1007.7
20260509232525 31 191 1.6 6.4 0.00 0.36 0.36 53 1007.6
20260509232004 31 200 3.2 6.4 0.00 0.36 0.36 54 1007.7
20260509231504 31 202 4.8 8.0 0.00 0.36 0.36 53 1007.6
20260509231004 31 211 4.8 9.7 0.00 0.36 0.36 53 1007.6
20260509230526 31 208 4.8 11.3 0.00 0.36 0.36 53 1007.6
20260509230006 31 200 6.4 11.3 0.00 0.36 0.36 52 1007.5
20260509225504 31 195 6.4 16.1 0.00 0.36 0.36 52 1007.4
20260509225005 32 201 6.4 16.1 0.00 0.36 0.36 51 1007.5
20260509224505 32 214 8.0 12.9 0.00 0.36 0.36 51 1007.6
20260509224005 32 218 8.0 12.9 0.00 0.36 0.36 52 1007.4
20260509223504 32 208 8.0 12.9 0.00 0.36 0.36 52 1007.2
20260509223004 32 202 8.0 12.9 0.00 0.36 0.36 54 1007.3
20260509222504 32 210 6.4 12.9 0.00 0.36 0.36 55 1007.3
20260509222004 32 209 6.4 12.9 0.00 0.36 0.36 53 1007.3
20260509221504 32 211 4.8 12.9 0.00 0.36 0.36 56 1007.5
20260509221004 32 194 4.8 12.9 0.00 0.36 0.36 53 1007.5
20260509220504 31 174 6.4 12.9 0.00 0.36 0.36 54 1007.5
20260509220005 31 182 6.4 16.1 0.00 0.36 0.36 55 1007.7
20260509215525 31 182 6.4 16.1 0.00 0.36 0.36 54 1007.7
20260509215004 31 183 6.4 14.5 0.00 0.36 0.36 57 1007.7
20260509214504 32 189 6.4 14.5 0.00 0.36 0.36 55 1007.8
20260509214004 32 167 4.8 11.3 0.00 0.36 0.36 56 1007.8
20260509213505 31 151 4.8 11.3 0.00 0.36 0.36 57 1007.9
20260509213005 32 184 6.4 12.9 0.00 0.36 0.36 55 1007.9
20260509212504 32 210 6.4 12.9 0.00 0.36 0.36 56 1008.0
20260509212004 32 221 6.4 12.9 0.00 0.36 0.36 56 1008.0
20260509211526 32 207 6.4 12.9 0.00 0.36 0.36 56 1008.0
20260509211005 31 194 8.0 14.5 0.00 0.36 0.36 56 1008.1
20260509210525 32 205 6.4 14.5 0.00 0.36 0.36 55 1008.1
20260509210025 32 214 4.8 16.1 0.00 0.36 0.36 55 1008.2
20260509205504 31 229 6.4 16.1 0.00 0.36 0.36 55 1008.2
20260509205005 31 233 8.0 17.7 0.00 0.36 0.36 56 1008.4
20260509204504 31 219 8.0 17.7 0.00 0.36 0.36 57 1008.5
20260509204025 31 210 8.0 16.1 0.00 0.36 0.36 58 1008.6
20260509203504 31 207 8.0 16.1 0.00 0.36 0.36 56 1008.6
20260509203004 31 212 8.0 17.7 0.00 0.36 0.36 56 1008.5
20260509202525 31 211 9.7 25.7 0.00 0.36 0.36 57 1008.6
20260509202025 31 224 8.0 25.7 0.00 0.36 0.36 56 1008.6
20260509201504 31 216 9.7 19.3 0.00 0.36 0.36 56 1008.7
20260509201004 31 201 9.7 19.3 0.00 0.36 0.36 58 1008.7
20260509200504 31 217 8.0 20.9 0.00 0.36 0.36 57 1008.7
20260509200005 31 236 6.4 20.9 0.00 0.36 0.36 57 1008.9
20260509195504 31 233 6.4 14.5 0.00 0.36 0.36 60 1008.9
20260509195004 31 216 8.0 16.1 0.00 0.36 0.36 60 1009.1
20260509194504 31 198 8.0 16.1 0.00 0.36 0.36 62 1009.2
20260509194005 30 193 6.4 14.5 0.00 0.36 0.36 60 1009.3
20260509193525 31 207 3.2 14.5 0.00 0.36 0.36 62 1009.4
20260509193004 30 210 3.2 8.0 0.00 0.36 0.36 63 1009.6
20260509192504 31 258 3.2 9.7 0.00 0.36 0.36 60 1009.6
20260509192004 30 244 4.8 9.7 0.00 0.36 0.36 64 1009.7
20260509191525 30 206 4.8 9.7 0.00 0.36 0.36 65 1009.8
20260509191004 30 206 4.8 14.5 0.00 0.36 0.36 64 1009.9
20260509190504 30 210 4.8 14.5 0.00 0.36 0.36 66 1009.9
20260509190006 30 196 3.2 8.0 0.00 0.36 0.36 66 1009.9
20260509185505 29 169 3.2 8.0 0.00 0.36 0.36 69 1009.8
20260509185005 29 183 3.2 8.0 0.00 0.36 0.36 68 1009.9
20260509184504 29 227 4.8 8.0 0.00 0.36 0.36 67 1009.9
20260509184004 30 260 3.2 8.0 0.00 0.36 0.36 67 1010.0
20260509183525 30 314 3.2 8.0 0.00 0.36 0.36 69 1010.1
20260509183004 30 352 3.2 8.0 0.00 0.36 0.36 67 1010.0
20260509182505 30 291 1.6 6.4 0.00 0.36 0.36 69 1010.1
20260509182026 30 247 1.6 6.4 0.00 0.36 0.36 67 1010.2
20260509181504 29 274 3.2 14.5 0.00 0.36 0.36 72 1010.3
20260509181005 28 266 3.2 14.5 0.00 0.36 0.36 69 1010.4
20260509180504 28 187 3.2 11.3 0.00 0.36 0.36 70 1010.4
20260509180026 28 218 4.8 12.9 0.00 0.36 0.36 69 1010.4
20260509175525 28 233 4.8 12.9 0.00 0.36 0.36 71 1010.5
20260509175004 28 212 4.8 12.9 0.00 0.36 0.36 72 1010.5
20260509174504 28 223 4.8 12.9 0.00 0.36 0.36 69 1010.6
20260509174004 28 247 4.8 19.3 0.00 0.36 0.36 69 1010.7
20260509173505 28 229 8.0 19.3 0.00 0.36 0.36 71 1010.8
20260509173004 28 213 8.0 17.7 0.00 0.36 0.36 73 1010.7
20260509172525 27 212 6.4 14.5 0.00 0.36 0.36 72 1010.7
20260509172004 27 241 4.8 14.5 0.00 0.36 0.36 73 1010.8
20260509171504 27 231 6.4 14.5 0.00 0.36 0.36 73 1010.9
20260509171004 27 219 8.0 16.1 0.00 0.36 0.36 75 1010.9
20260509170526 27 211 8.0 16.1 0.00 0.36 0.36 74 1011.1
20260509170004 27 205 8.0 17.7 0.00 0.36 0.36 75 1011.0
20260509165526 27 219 8.0 19.3 0.00 0.36 0.36 75 1011.0
20260509165004 27 238 6.4 19.3 0.00 0.36 0.36 74 1011.0
20260509164505 27 250 4.8 14.5 0.00 0.36 0.36 74 1011.1
20260509164004 27 258 4.8 14.5 0.00 0.36 0.36 76 1011.1
20260509163504 27 251 6.4 14.5 0.00 0.36 0.36 75 1011.0
20260509163004 26 260 6.4 12.9 0.00 0.36 0.36 77 1011.1
20260509162504 26 261 4.8 11.3 0.00 0.36 0.36 78 1011.0
20260509162025 26 233 4.8 16.1 0.00 0.36 0.36 79 1011.0
20260509161504 26 235 6.4 16.1 0.00 0.36 0.36 82 1010.9
20260509161004 26 250 6.4 12.9 0.00 0.36 0.36 82 1010.9
20260509160504 25 246 6.4 16.1 0.00 0.36 0.36 85 1010.9
20260509160005 25 258 6.4 16.1 0.00 0.36 0.36 89 1010.7
20260509155505 25 269 8.0 20.9 0.00 0.36 0.36 91 1010.7
20260509155004 24 267 9.7 20.9 0.03 0.36 0.36 93 1010.7
20260509154504 23 266 8.0 17.7 0.03 0.36 0.36 94 1010.7
20260509154025 23 264 6.4 12.9 0.03 0.36 0.36 96 1010.9
20260509153504 23 265 4.8 11.3 0.03 0.36 0.36 96 1010.9
20260509153004 23 267 3.2 9.7 0.05 0.36 0.36 96 1011.0
20260509152504 23 279 3.2 11.3 0.05 0.36 0.36 96 1011.2
20260509152004 23 306 1.6 11.3 0.05 0.36 0.36 97 1011.2
20260509151504 23 357 1.6 6.4 0.08 0.36 0.36 96 1011.2
20260509151005 23 5 1.6 6.4 0.08 0.36 0.36 96 1011.4
20260509150504 23 308 1.6 4.8 0.08 0.36 0.36 97 1011.3
20260509150004 23 334 1.6 4.8 0.08 0.36 0.36 97 1011.1
20260509145504 23 320 1.6 4.8 0.08 0.36 0.36 97 1011.0
20260509145025 22 283 1.6 4.8 0.05 0.33 0.33 96 1011.2
20260509144504 22 255 3.2 6.4 0.05 0.33 0.33 96 1011.4
20260509144004 22 235 3.2 8.0 0.05 0.33 0.33 96 1011.3
20260509143525 22 208 4.8 9.7 0.05 0.33 0.33 96 1011.3
20260509143004 22 189 4.8 9.7 0.03 0.30 0.30 96 1011.5
20260509142504 22 172 3.2 8.0 0.03 0.30 0.30 96 1011.6
20260509142004 22 159 3.2 8.0 0.03 0.30 0.30 96 1011.6
20260509141504 22 156 4.8 8.0 0.00 0.28 0.28 96 1011.6
20260509141005 22 143 3.2 8.0 0.00 0.28 0.28 96 1011.4
20260509140504 22 130 3.2 6.4 0.00 0.28 0.28 96 1011.5
20260509140006 22 98 3.2 11.3 0.00 0.28 0.28 96 1011.3
20260509135504 23 83 3.2 11.3 0.00 0.28 0.28 96 1011.3
20260509135005 23 84 3.2 8.0 0.00 0.28 0.28 96 1011.2
20260509134504 23 86 3.2 6.4 0.00 0.28 0.28 96 1010.9
20260509134004 22 95 1.6 6.4 0.03 0.28 0.28 96 1010.5
20260509133504 22 146 0.0 4.8 0.03 0.28 0.28 96 1010.3
20260509133004 22 155 1.6 6.4 0.03 0.28 0.28 96 1010.1
20260509132504 22 160 1.6 6.4 0.03 0.28 0.28 96 1010.0
20260509132004 22 171 1.6 3.2 0.03 0.28 0.28 96 1010.2
20260509131504 22 177 1.6 4.8 0.05 0.28 0.28 96 1010.4
20260509131004 22 161 3.2 8.0 0.15 0.28 0.28 96 1010.4
20260509130504 22 141 1.6 8.0 0.28 0.28 0.28 96 1010.8
20260509130004 22 88 0.0 1.6 0.28 0.28 0.28 96 1010.7
20260509125526 22 88 0.0 3.2 0.28 0.28 0.28 96 1010.9
20260509125004 22 88 1.6 4.8 0.28 0.28 0.28 96 1011.0
20260509124505 22 87 3.2 9.7 0.28 0.28 0.28 96 1011.1
20260509124025 22 80 3.2 9.7 0.25 0.25 0.25 96 1011.2
20260509123504 22 69 3.2 6.4 0.25 0.25 0.25 96 1011.2
20260509123004 22 59 3.2 6.4 0.25 0.25 0.25 96 1011.3
20260509122525 22 34 3.2 8.0 0.25 0.25 0.25 96 1011.3
20260509122004 22 32 3.2 9.7 0.25 0.25 0.25 96 1011.3
20260509121504 22 33 4.8 9.7 0.23 0.23 0.23 96 1011.4
20260509121025 22 23 3.2 8.0 0.13 0.13 0.13 96 1011.4
20260509120504 22 17 3.2 8.0 0.00 0.00 0.00 96 1011.5
20260509120004 22 20 3.2 8.0 0.00 0.00 0.00 96 1011.4
20260509115504 22 22 3.2 8.0 0.00 0.00 0.00 96 1011.4
20260509115004 22 16 3.2 6.4 0.00 0.00 0.00 96 1011.3
20260509114504 22 20 1.6 6.4 0.00 0.00 0.00 96 1011.2
20260509114004 22 50 1.6 3.2 0.00 0.00 0.00 96 1011.0
20260509113525 22 61 1.6 3.2 0.00 0.00 0.00 96 1010.8
20260509113004 22 61 1.6 3.2 0.00 0.00 0.00 96 1010.6
20260509112504 22 61 0.0 3.2 0.00 0.00 0.00 96 1010.6
20260509112025 22 61 1.6 3.2 0.00 0.00 0.00 96 1010.4
20260509111504 22 60 1.6 4.8 0.00 0.00 0.00 96 1010.2
20260509111004 22 52 1.6 4.8 0.00 0.00 0.00 96 1010.1
20260509110525 22 47 1.6 3.2 0.00 0.00 0.00 96 1010.1
20260509110004 22 85 1.6 3.2 0.00 0.00 0.00 96 1010.3
20260509105504 22 85 1.6 3.2 0.00 0.00 0.00 96 1010.3
20260509105004 22 85 1.6 3.2 0.00 0.00 0.00 96 1010.3
20260509104504 22 85 0.0 3.2 0.00 0.00 0.00 96 1010.3
20260509104025 22 85 1.6 6.4 0.00 0.00 0.00 96 1010.3
20260509103526 22 81 3.2 6.4 0.00 0.00 0.00 96 1010.3
20260509103025 22 76 1.6 6.4 0.00 0.00 0.00 95 1010.3
20260509102525 22 81 3.2 6.4 0.00 0.00 0.00 95 1010.3
20260509102004 22 73 3.2 6.4 0.00 0.00 0.00 95 1010.5
20260509101525 22 68 3.2 6.4 0.00 0.00 0.00 95 1010.6
20260509101004 22 59 3.2 6.4 0.00 0.00 0.00 95 1010.7
20260509100505 22 46 1.6 6.4 0.00 0.00 0.00 95 1010.6
20260509100004 22 41 3.2 8.0 0.00 0.00 0.00 95 1010.6
20260509095504 22 33 3.2 8.0 0.00 0.00 0.00 95 1010.4
20260509095004 22 34 3.2 8.0 0.00 0.00 0.00 95 1010.5
20260509094504 22 46 3.2 4.8 0.00 0.00 0.00 95 1010.3
20260509094005 22 45 1.6 4.8 0.00 0.00 0.00 95 1010.3
20260509093504 22 28 1.6 4.8 0.00 0.00 0.00 95 1010.1
20260509093004 22 19 1.6 4.8 0.00 0.00 0.00 95 1010.0
20260509092504 22 9 3.2 4.8 0.00 0.00 0.00 95 1009.8
20260509092004 22 18 1.6 4.8 0.00 0.00 0.00 95 1009.6
20260509091525 22 84 0.0 3.2 0.00 0.00 0.00 95 1009.6
20260509091004 22 96 1.6 3.2 0.00 0.00 0.00 95 1009.6
20260509090525 22 99 1.6 4.8 0.00 0.00 0.00 95 1009.4
20260509090004 22 102 1.6 4.8 0.00 0.00 0.00 95 1009.3
20260509085504 22 102 1.6 6.4 0.00 0.00 0.00 95 1009.2
20260509085004 22 96 1.6 6.4 0.00 0.00 0.00 95 1009.4
20260509084503 22 8 1.6 6.4 0.00 0.00 0.00 95 1009.2
20260509084026 22 115 3.2 11.3 0.00 0.00 0.00 95 1009.4
20260509083503 22 127 4.8 11.3 0.00 0.00 0.00 95 1009.0
20260509083004 22 134 4.8 11.3 0.00 0.00 0.00 95 1008.8
20260509082505 22 152 4.8 11.3 0.00 0.00 0.00 95 1009.3
20260509082004 22 168 3.2 9.7 0.00 0.00 0.00 95 1009.8
20260509081505 22 191 3.2 8.0 0.00 0.00 0.00 95 1010.1
20260509081004 22 197 3.2 8.0 0.00 0.00 0.00 94 1010.3
20260509080503 22 174 4.8 9.7 0.00 0.00 0.00 94 1010.3
20260509080004 22 155 6.4 11.3 0.00 0.00 0.00 94 1010.1
20260509075525 22 149 6.4 11.3 0.00 0.00 0.00 94 1009.7
20260509075004 22 152 4.8 11.3 0.00 0.00 0.00 94 1009.6
20260509074504 22 161 3.2 6.4 0.00 0.00 0.00 94 1009.6
20260509074004 22 179 3.2 6.4 0.00 0.00 0.00 94 1010.0
20260509073504 22 176 3.2 8.0 0.00 0.00 0.00 94 1010.0
20260509073004 22 149 3.2 8.0 0.00 0.00 0.00 94 1009.9
20260509072504 22 148 4.8 11.3 0.00 0.00 0.00 94 1009.8
20260509072004 22 157 4.8 11.3 0.00 0.00 0.00 94 1009.7
20260509071504 22 158 4.8 11.3 0.00 0.00 0.00 93 1009.9
20260509071004 22 164 6.4 14.5 0.00 0.00 0.00 93 1010.2
20260509070503 22 174 6.4 14.5 0.00 0.00 0.00 93 1010.0
20260509070004 22 174 6.4 14.5 0.00 0.00 0.00 93 1010.1
20260509065504 22 165 8.0 14.5 0.00 0.00 0.00 93 1010.2
20260509065003 22 155 8.0 14.5 0.00 0.00 0.00 93 1010.2
20260509064524 22 154 6.4 14.5 0.00 0.00 0.00 92 1010.2
20260509064003 22 163 4.8 11.3 0.00 0.00 0.00 92 1010.3
20260509063504 22 165 4.8 11.3 0.00 0.00 0.00 92 1010.4
20260509063003 22 160 3.2 11.3 0.00 0.00 0.00 92 1010.3
20260509062504 22 156 4.8 8.0 0.00 0.00 0.00 92 1010.3
20260509062003 22 154 4.8 8.0 0.00 0.00 0.00 92 1010.2
20260509061525 22 149 4.8 8.0 0.00 0.00 0.00 92 1010.2